This is the latest recevied weather packets stored in our database for station/object AC0MR. If no packets are shown the sender has not sent any weather packets the latest 10 day(s).
| Time | Temp. | Humidity | Pressure | Rain* | Wind** | Luminosity | Snow |
|---|---|---|---|---|---|---|---|
| 1777679719 | 10.56° C | 51% | 1016.2 hPa | 0 mm | - | 46 W/m² | - |
| 1777679118 | 11.11° C | 51% | 1016.2 hPa | 0 mm | - | 50 W/m² | - |
| 1777678518 | 11.11° C | 49% | 1016.2 hPa | 0 mm | - | 56 W/m² | - |
| 1777677919 | 11.11° C | 48% | 1016.2 hPa | 0 mm | - | 260 W/m² | - |
| 1777677319 | 11.11° C | 50% | 1016.2 hPa | 0 mm | - | 172 W/m² | - |
| 1777676718 | 11.11° C | 49% | 1016.2 hPa | 0 mm | - | 145 W/m² | - |
| 1777676118 | 11.67° C | 50% | 1016.4 hPa | 0 mm | - | 155 W/m² | - |
| 1777675519 | 12.22° C | 48% | 1016.4 hPa | 0 mm | - | 162 W/m² | - |
| 1777674918 | 12.22° C | 49% | 1016.4 hPa | 0 mm | - | 378 W/m² | - |
| 1777674321 | 11.67° C | 50% | 1016.4 hPa | 0 mm | - | 336 W/m² | - |
| 1777673718 | 12.22° C | 50% | 1016.4 hPa | 0 mm | - | 178 W/m² | - |
| 1777673118 | 12.22° C | 48% | 1016.3 hPa | 0 mm | - | 298 W/m² | - |
| 1777672518 | 12.22° C | 53% | 1016.3 hPa | 0 mm | - | 544 W/m² | - |
| 1777671918 | 11.11° C | 55% | 1016.2 hPa | 0 mm | - | 551 W/m² | - |
| 1777671318 | 11.11° C | 58% | 1016.2 hPa | 0 mm | - | 277 W/m² | - |
| 1777670718 | 11.11° C | 56% | 1016.3 hPa | 0 mm | - | 105 W/m² | - |
| 1777670118 | 11.67° C | 52% | 1016.3 hPa | 0 mm | - | 159 W/m² | - |
| 1777669518 | 12.22° C | 51% | 1016.4 hPa | 0 mm | - | 203 W/m² | - |
| 1777668918 | 12.22° C | 50% | 1016.5 hPa | 0 mm | - | 235 W/m² | - |
| 1777668318 | 12.78° C | 51% | 1016.6 hPa | 0 mm | - | 603 W/m² | - |
| 1777667718 | 12.22° C | 52% | 1016.5 hPa | 0 mm | - | 807 W/m² | - |
| 1777667118 | 12.22° C | 55% | 1016.5 hPa | 0 mm | - | 861 W/m² | - |
| 1777666518 | 11.11° C | 59% | 1016.5 hPa | 0 mm | - | 425 W/m² | - |
| 1777665918 | 10.56° C | 57% | 1016.6 hPa | 0 mm | - | 415 W/m² | - |
| 1777665318 | 10° C | 59% | 1016.6 hPa | 0 mm | - | 286 W/m² | - |
* Rain latest hour (hover to see other rain measurements)
** Current wind speed in m/s (hover to see current wind gust speed)